Weather Roundup
Issued by NWS Springfield, MO

Home | Current Version | Previous Version | Text Only | Print | Product List | Glossary On
Versions: 1 2 3 4 5 6 7 8 9 10 11 12 13 14 15 16 17 18 19 20 21 22 23 24 25 26 27 28 29 30 31 32 33 34 35 36 37 38 39 40 41 42 43 44 45 46 47 48 49 50
000
NZUS99 KSGF 201407
HRRSGF

HOURLY WEATHER
NATIONAL WEATHER SERVICE SPRINGFIELD MO
800 AM CST SAT DEC 20 2014

......SGF CWA......

CITY           SKY/WX    TMP DP  RH WIND       PRES   REMARKS
SPRINGFIELD    FOG       38  37  97 S6        30.22R VSB 1/2 WCI  33
JOPLIN         CLOUDY    36  35  96 W3        30.25R FOG
WEST PLAINS    CLOUDY    34  31  88 CALM      30.24S FOG
ROLLA          CLOUDY    35  33  92 S5        30.22R FOG     WCI  31
OSAGE BEACH    CLOUDY    37  34  87 CALM      30.23S
BRANSON        FOG       37  36  93 CALM      30.23S VSB 1/8

......SURROUNDING SGF CWA......

CITY           SKY/WX    TMP DP  RH WIND       PRES   REMARKS
CHANUTE        CLOUDY    37  33  85 S6        30.23R WCI  32
PARSONS        CLOUDY    37  35  92 CALM      30.25R
COFFEYVILLE    CLOUDY    37  34  89 S5        30.24S WCI  33
EMPORIA        CLOUDY    32  31  96 S13       30.16S FOG     WCI  22
GROVE OK       MOCLDY    36  36 100 CALM      30.26S FOG
ROGERS AR      CLOUDY    39  38  96 W3        30.23R
SILOAM SPRINGS CLOUDY    39  34  81 CALM      30.25R VSB 1/4
HARRISON AR    FOG       37  37 100 SE5       30.22S VSB<1/4 WCI  33
NEAR YELLVILLE CLOUDY    37  32  81 CALM      30.24S

......KANSAS AND MISSOURI......

CITY           SKY/WX    TMP DP  RH WIND       PRES   REMARKS
KANSAS CTY INT CLOUDY    34  31  88 S12       30.16F WCI  25
DOWNTOWN KC    CLOUDY    35  30  82 S13       30.19S WCI  26
COLUMBIA       CLOUDY    36  35  96 S7        30.23R FOG     WCI  30
SEDALIA        CLOUDY    38  36  92 SW3       30.22S
ST JOSEPH      CLEAR     31  29  92 S7        30.16R WCI  24
ST LOUIS       CLOUDY    37  27  67 S6        30.27R WCI  32
SPIRIT OF STL  CLOUDY    35  30  82 CALM      30.27R
KIRKSVILLE     FOG       33  33 100 S7        30.20S VSB<1/4 WCI  27
WICHITA        MOCLDY    35  33  92 S9        30.17S FOG     WCI  28
TOPEKA         CLEAR     35  31  85 S10       30.16S WCI  27
OLATHE         CLOUDY    33  31  92 S12       30.18S WCI  24

......TENNESSEE......

CITY           SKY/WX    TMP DP  RH WIND       PRES   REMARKS
MEMPHIS        MOCLDY    40  32  73 NE8       30.27S WCI  34
NASHVILLE      MOSUNNY   33  27  78 N5        30.28S WCI  29

......ARKANSAS.......

CITY           SKY/WX    TMP DP  RH WIND       PRES   REMARKS
FAYETTEVILLE   CLOUDY    40  39  97 SW3       30.23S FOG
FT SMITH       CLOUDY    41  39  93 E6        30.27R FOG
LITTLE ROCK    CLOUDY    41  34  76 NE3       30.28S

......OKLAHOMA.......

CITY           SKY/WX    TMP DP  RH WIND       PRES   REMARKS
TULSA          CLOUDY    39  36  89 S5        30.26S
PONCA CITY     CLOUDY    39  34  82 S5        30.20F
MCALESTER      CLOUDY    42  39  89 N5        30.25S FOG
OKLAHOMA CITY  CLOUDY    41  35  79 SE6       30.20F

......IOWA............

CITY           SKY/WX    TMP DP  RH WIND       PRES   REMARKS
DES MOINES     CLOUDY    32  28  85 S5        30.18R WCI  27
QUAD CITIES    CLOUDY    30  25  81 E5        30.24F HAZE    WCI  25

......ILLINOIS........

CITY           SKY/WX    TMP DP  RH WIND       PRES   REMARKS
QUINCY         CLOUDY    32  28  85 S6        30.23S FOG     WCI  26
CHICAGO        CLOUDY    30  24  78 CALM      30.27S




USA.gov is the U.S. government's official web portal to all federal, state and local government web resources and services.